{"data":{"norad_id":43567,"epoch":"2026-05-23T12:04:55.070688Z","epoch_age_seconds":200780,"freshness":"STALE","line1":"1 43567U 18060D   26143.50341517 -.00000088  00000+0  00000+0 0  9997","line2":"2 43567  57.1794 342.4508 0002695 325.3655  34.6368  1.70475670 48758","mean_motion":1.7047567,"eccentricity":0.0002695,"inclination_deg":57.1794,"raan_deg":342.4508,"arg_perigee_deg":325.3655,"mean_anomaly_deg":34.6368,"bstar":0,"rev_number":4875,"period_min":844.69531634632,"perigee_km":23214.012510914,"apogee_km":23229.96697923,"semimajor_km":29600.126745072,"source":"CELESTRAK","updated_at":"2026-05-25T13:38:24.061122Z"}}